�������l�o���
Date,Time,MP-1(��Sv/h),MP-2(��Sv/h),MP-3(��Sv/h),MP-4(��Sv/h),MP-5(��Sv/h),MP-6(��Sv/h),MP-7(��Sv/h),MP-8(��Sv/h),����,����(m/s),���J
2018/02/16,00:00,0.887,1.489,0.924,1.739,1.199,0.487,0.865,0.836,�k�k��,1.5,��
2018/02/16,00:10,0.887,1.488,0.926,1.740,1.198,0.487,0.865,0.836,�k�k��,2.2,��
2018/02/16,00:20,0.887,1.488,0.926,1.739,1.199,0.486,0.865,0.836,�k�k��,3.4,��
2018/02/16,00:30,0.886,1.490,0.924,1.740,1.199,0.488,0.867,0.835,�k�k��,3.1,��
2018/02/16,00:40,0.887,1.487,0.925,1.740,1.199,0.485,0.864,0.836,�k��,2.8,��
2018/02/16,00:50,0.886,1.486,0.925,1.739,1.201,0.487,0.865,0.834,�k�k��,3.2,��
2018/02/16,01:00,0.889,1.487,0.924,1.740,1.198,0.486,0.867,0.834,�k�k��,2.3,��
2018/02/16,01:10,0.888,1.486,0.927,1.738,1.199,0.486,0.866,0.835,�k�k��,2.6,��
2018/02/16,01:20,0.888,1.487,0.923,1.737,1.198,0.486,0.865,0.837,�k,3.9,��
2018/02/16,01:30,0.888,1.486,0.923,1.738,1.200,0.487,0.865,0.835,�k,4.3,��
2018/02/16,01:40,0.887,1.488,0.925,1.740,1.199,0.487,0.865,0.834,�k,3.4,��
2018/02/16,01:50,0.886,1.487,0.925,1.742,1.201,0.485,0.868,0.835,�k,4.0,��
2018/02/16,02:00,0.886,1.487,0.925,1.735,1.199,0.485,0.865,0.835,�k�k��,3.8,��
2018/02/16,02:10,0.886,1.487,0.925,1.737,1.199,0.487,0.865,0.834,�k,3.4,��
2018/02/16,02:20,0.887,1.488,0.925,1.740,1.200,0.486,0.865,0.836,�k�k��,3.9,��
2018/02/16,02:30,0.885,1.486,0.926,1.738,1.201,0.486,0.864,0.834,�k�k��,4.4,��
2018/02/16,02:40,0.885,1.486,0.925,1.738,1.201,0.486,0.866,0.836,�k�k��,6.4,��
2018/02/16,02:50,0.885,1.485,0.925,1.736,1.198,0.486,0.863,0.835,�k�k��,7.0,��
2018/02/16,03:00,0.885,1.486,0.926,1.738,1.197,0.486,0.864,0.835,�k�k��,6.5,��
2018/02/16,03:10,0.887,1.489,0.924,1.739,1.198,0.486,0.864,0.834,�k�k��,6.5,��
2018/02/16,03:20,0.887,1.487,0.925,1.738,1.197,0.487,0.864,0.836,�k�k��,6.0,��
2018/02/16,03:30,0.886,1.488,0.925,1.739,1.198,0.486,0.864,0.835,�k�k��,5.7,��
2018/02/16,03:40,0.885,1.486,0.925,1.736,1.199,0.486,0.863,0.834,�k�k��,5.5,��
2018/02/16,03:50,0.884,1.488,0.924,1.737,1.198,0.486,0.865,0.835,�k�k��,5.2,��
2018/02/16,04:00,0.886,1.488,0.924,1.738,1.200,0.486,0.865,0.834,�k�k��,5.0,��
2018/02/16,04:10,0.886,1.488,0.924,1.737,1.199,0.486,0.865,0.833,�k�k��,4.9,��
2018/02/16,04:20,0.885,1.490,0.925,1.735,1.200,0.486,0.866,0.834,�k�k��,5.1,��
2018/02/16,04:30,0.885,1.486,0.924,1.735,1.200,0.486,0.865,0.835,�k�k��,5.2,��
2018/02/16,04:40,0.889,1.484,0.924,1.736,1.199,0.485,0.865,0.834,�k�k��,6.0,��
2018/02/16,04:50,0.885,1.487,0.923,1.738,1.196,0.486,0.864,0.836,�k�k��,5.5,��
2018/02/16,05:00,0.886,1.488,0.925,1.733,1.197,0.485,0.865,0.834,�k�k��,7.0,��
2018/02/16,05:10,0.885,1.489,0.925,1.735,1.199,0.483,0.866,0.834,�k�k��,7.4,��
2018/02/16,05:20,0.886,1.486,0.923,1.738,1.199,0.484,0.866,0.836,�k�k��,8.1,��
2018/02/16,05:30,0.887,1.488,0.924,1.738,1.200,0.485,0.865,0.835,�k�k��,8.5,��
2018/02/16,05:40,0.885,1.487,0.924,1.740,1.197,0.484,0.865,0.834,�k�k��,7.9,��
2018/02/16,05:50,0.885,1.485,0.924,1.739,1.199,0.485,0.866,0.836,�k�k��,6.8,��
2018/02/16,06:00,0.885,1.486,0.922,1.738,1.196,0.485,0.864,0.834,�k��,7.2,��
2018/02/16,06:10,0.886,1.486,0.921,1.738,1.198,0.486,0.864,0.833,�k�k��,7.0,��
2018/02/16,06:20,0.885,1.487,0.923,1.734,1.197,0.487,0.864,0.834,�k��,3.9,��
2018/02/16,06:30,0.885,1.485,0.923,1.738,1.199,0.485,0.865,0.834,�k�k��,1.7,��
2018/02/16,06:40,0.886,1.483,0.922,1.735,1.198,0.485,0.865,0.836,�k�k��,1.2,��
2018/02/16,06:50,0.886,1.486,0.922,1.739,1.197,0.486,0.865,0.836,���k��,1.7,��
2018/02/16,07:00,0.886,1.486,0.923,1.736,1.197,0.486,0.866,0.835,���k��,2.6,��
2018/02/16,07:10,0.885,1.486,0.925,1.736,1.199,0.485,0.865,0.836,�k��,2.9,��
2018/02/16,07:20,0.886,1.486,0.924,1.738,1.198,0.485,0.865,0.834,�k�k��,2.8,��
2018/02/16,07:30,0.886,1.487,0.923,1.736,1.199,0.486,0.864,0.835,�k��,3.4,��
2018/02/16,07:40,0.887,1.487,0.923,1.735,1.198,0.486,0.864,0.834,�k��,4.8,��
2018/02/16,07:50,0.888,1.487,0.925,1.737,1.199,0.487,0.865,0.834,�k��,5.5,��
2018/02/16,08:00,0.886,1.485,0.924,1.736,1.200,0.487,0.864,0.836,�k��,5.3,��
2018/02/16,08:10,0.886,1.489,0.925,1.738,1.197,0.487,0.866,0.837,�k��,5.8,��
2018/02/16,08:20,0.887,1.484,0.928,1.738,1.196,0.486,0.865,0.834,���k��,2.8,��
2018/02/16,08:30,0.889,1.486,0.925,1.738,1.199,0.485,0.865,0.838,�k��,1.7,��
2018/02/16,08:40,0.889,1.487,0.925,1.741,1.199,0.486,0.865,0.834,�k,1.7,��
2018/02/16,08:50,0.887,1.489,0.925,1.739,1.200,0.486,0.869,0.834,���k��,1.1,��
2018/02/16,09:00,0.888,1.487,0.925,1.737,1.200,0.486,0.867,0.837,�k��,2.8,��
2018/02/16,09:10,0.890,1.486,0.924,1.741,1.197,0.487,0.868,0.838,�k��,3.8,��
2018/02/16,09:20,0.888,1.486,0.927,1.739,1.202,0.485,0.866,0.836,�k��,4.3,��
2018/02/16,09:30,0.891,1.488,0.927,1.739,1.201,0.486,0.866,0.837,���k��,4.4,��
2018/02/16,09:40,0.890,1.487,0.926,1.739,1.199,0.488,0.867,0.836,���k��,2.5,��
2018/02/16,09:50,0.892,1.486,0.927,1.740,1.199,0.486,0.866,0.837,�k�k��,2.3,��
2018/02/16,10:00,0.888,1.484,0.923,1.741,1.201,0.488,0.868,0.837,���k��,1.5,��
2018/02/16,10:10,0.892,1.484,0.927,1.740,1.202,0.486,0.867,0.836,��,3.3,��
2018/02/16,10:20,0.889,1.487,0.927,1.742,1.199,0.488,0.866,0.835,��,2.3,��
2018/02/16,10:30,0.891,1.486,0.927,1.742,1.199,0.488,0.867,0.836,��,3.7,��
2018/02/16,10:40,0.892,1.483,0.928,1.742,1.199,0.486,0.866,0.837,���쐼,4.1,��
2018/02/16,10:50,0.889,1.484,0.924,1.741,1.201,0.488,0.865,0.837,�k��,2.2,��
2018/02/16,11:00,0.890,1.484,0.925,1.738,1.201,0.487,0.865,0.837,�k,2.0,��
2018/02/16,11:10,0.887,1.483,0.926,1.745,1.202,0.489,0.865,0.836,�k��,2.2,��
2018/02/16,11:20,0.887,1.482,0.927,1.745,1.204,0.487,0.866,0.836,�k��,2.5,��
2018/02/16,11:30,0.891,1.481,0.929,1.741,1.205,0.487,0.866,0.837,�k��,3.3,��
2018/02/16,11:40,0.890,1.485,0.928,1.743,1.204,0.486,0.865,0.837,�k��,3.1,��
2018/02/16,11:50,0.890,1.486,0.930,1.743,1.203,0.485,0.864,0.836,�k��,4.2,��
2018/02/16,12:00,0.891,1.486,0.929,1.746,1.204,0.487,0.864,0.838,�k�k��,3.9,��
2018/02/16,12:10,0.892,1.487,0.931,1.742,1.203,0.488,0.866,0.838,�k�k��,3.6,��
2018/02/16,12:20,0.890,1.486,0.930,1.744,1.204,0.487,0.865,0.838,�k�k��,1.7,��
2018/02/16,12:30,0.892,1.488,0.929,1.745,1.206,0.489,0.866,0.836,�k��,3.7,��
2018/02/16,12:40,0.892,1.487,0.930,1.745,1.204,0.488,0.867,0.838,���k��,4.3,��
2018/02/16,12:50,0.893,1.488,0.929,1.746,1.205,0.488,0.866,0.838,�k��,4.0,��
2018/02/16,13:00,0.894,1.491,0.931,1.746,1.205,0.487,0.865,0.838,���k��,2.8,��
2018/02/16,13:10,0.893,1.488,0.928,1.744,1.204,0.486,0.865,0.839,��,3.3,��
2018/02/16,13:20,0.893,1.488,0.930,1.745,1.205,0.487,0.865,0.837,��,3.9,��
2018/02/16,13:30,0.893,1.487,0.928,1.746,1.203,0.487,0.864,0.838,��,3.3,��
2018/02/16,13:40,0.894,1.488,0.931,1.745,1.202,0.488,0.867,0.838,���쓌,3.8,��
2018/02/16,13:50,0.895,1.488,0.928,1.742,1.201,0.487,0.866,0.837,���쓌,3.0,��
2018/02/16,14:00,0.894,1.488,0.929,1.745,1.201,0.488,0.864,0.836,��쓌,4.2,��
2018/02/16,14:10,0.895,1.486,0.929,1.744,1.201,0.490,0.865,0.836,��쓌,5.0,��
2018/02/16,14:20,0.894,1.489,0.929,1.745,1.205,0.488,0.866,0.836,��쓌,5.6,��
2018/02/16,14:30,0.896,1.488,0.929,1.745,1.205,0.488,0.867,0.836,��쓌,4.4,��
2018/02/16,14:40,0.893,1.486,0.929,1.746,1.204,0.487,0.867,0.836,��쓌,5.0,��
2018/02/16,14:50,0.894,1.490,0.930,1.742,1.204,0.488,0.867,0.834,��쓌,5.6,��
2018/02/16,15:00,0.894,1.489,0.932,1.744,1.202,0.487,0.868,0.834,��쓌,6.0,��
2018/02/16,15:10,0.894,1.490,0.931,1.746,1.202,0.489,0.868,0.833,��쓌,5.8,��
2018/02/16,15:20,0.895,1.490,0.930,1.744,1.203,0.490,0.868,0.836,��쓌,5.4,��
2018/02/16,15:30,0.894,1.493,0.931,1.744,1.204,0.488,0.868,0.836,��쓌,5.8,��
2018/02/16,15:40,0.894,1.493,0.931,1.745,1.207,0.488,0.871,0.835,��쓌,5.4,��
2018/02/16,15:50,0.894,1.495,0.930,1.745,1.203,0.488,0.869,0.836,��쓌,5.7,��
2018/02/16,16:00,0.892,1.492,0.932,1.743,1.206,0.488,0.870,0.837,��쓌,5.9,��
2018/02/16,16:10,0.892,1.494,0.930,1.745,1.207,0.487,0.867,0.838,��쓌,5.3,��
2018/02/16,16:20,0.892,1.492,0.929,1.746,1.207,0.488,0.868,0.837,��쓌,4.8,��
2018/02/16,16:30,0.892,1.493,0.931,1.744,1.205,0.488,0.868,0.836,��쓌,5.7,��
2018/02/16,16:40,0.893,1.493,0.929,1.745,1.205,0.488,0.871,0.837,��쓌,6.1,��
2018/02/16,16:50,0.892,1.495,0.929,1.746,1.206,0.488,0.867,0.836,��쓌,4.9,��
2018/02/16,17:00,0.891,1.494,0.928,1.744,1.206,0.490,0.868,0.836,��쓌,5.8,��
2018/02/16,17:10,0.893,1.494,0.929,1.743,1.205,0.489,0.868,0.837,��쓌,5.6,��
2018/02/16,17:20,0.892,1.491,0.927,1.744,1.205,0.490,0.868,0.836,��,5.7,��
2018/02/16,17:30,0.890,1.492,0.929,1.744,1.205,0.488,0.868,0.839,��,5.7,��
2018/02/16,17:40,0.892,1.494,0.931,1.743,1.205,0.489,0.868,0.837,��쓌,5.8,��
2018/02/16,17:50,0.894,1.494,0.930,1.743,1.205,0.489,0.869,0.837,��,5.9,��
2018/02/16,18:00,0.892,1.493,0.930,1.744,1.207,0.489,0.870,0.838,��,5.5,��
2018/02/16,18:10,0.893,1.496,0.930,1.745,1.204,0.490,0.869,0.836,��쓌,4.9,��
2018/02/16,18:20,0.892,1.491,0.931,1.744,1.206,0.488,0.867,0.836,��,5.4,��
2018/02/16,18:30,0.891,1.494,0.929,1.745,1.204,0.488,0.866,0.836,��,5.5,��
2018/02/16,18:40,0.892,1.493,0.929,1.745,1.205,0.489,0.867,0.837,��,4.8,��
2018/02/16,18:50,0.892,1.494,0.928,1.739,1.205,0.490,0.867,0.836,��,4.6,��
2018/02/16,19:00,0.891,1.493,0.929,1.742,1.204,0.489,0.867,0.837,��쐼,4.0,��
2018/02/16,19:10,0.889,1.494,0.930,1.743,1.205,0.488,0.867,0.836,��쐼,3.9,��
2018/02/16,19:20,0.891,1.493,0.929,1.741,1.206,0.488,0.866,0.837,��쐼,3.9,��
2018/02/16,19:30,0.892,1.493,0.929,1.743,1.207,0.489,0.867,0.837,��쐼,4.2,��
2018/02/16,19:40,0.890,1.494,0.928,1.745,1.204,0.489,0.866,0.836,��쐼,3.6,��
2018/02/16,19:50,0.892,1.491,0.928,1.742,1.205,0.488,0.868,0.839,��쐼,3.4,��
2018/02/16,20:00,0.892,1.493,0.929,1.742,1.203,0.487,0.867,0.838,��쐼,3.5,��
2018/02/16,20:10,0.892,1.493,0.930,1.743,1.206,0.488,0.868,0.834,��쐼,3.0,��
2018/02/16,20:20,0.889,1.492,0.929,1.741,1.205,0.488,0.867,0.837,�쐼,3.2,��
2018/02/16,20:30,0.893,1.489,0.931,1.744,1.205,0.488,0.866,0.836,�쐼,3.1,��
2018/02/16,20:40,0.891,1.490,0.929,1.744,1.205,0.488,0.866,0.836,��쐼,2.8,��
2018/02/16,20:50,0.892,1.491,0.928,1.744,1.206,0.485,0.867,0.838,��쐼,2.6,��
2018/02/16,21:00,0.890,1.492,0.930,1.742,1.205,0.489,0.867,0.836,�쐼,2.6,��
2018/02/16,21:10,0.892,1.489,0.929,1.742,1.204,0.489,0.866,0.838,�쐼,2.6,��
2018/02/16,21:20,0.892,1.489,0.927,1.743,1.202,0.488,0.866,0.837,�쐼,2.2,��
2018/02/16,21:30,0.891,1.493,0.931,1.741,1.204,0.488,0.867,0.837,�쐼,2.0,��
2018/02/16,21:40,0.892,1.492,0.931,1.744,1.206,0.488,0.869,0.836,���쐼,2.3,��
2018/02/16,21:50,0.891,1.492,0.929,1.740,1.205,0.487,0.870,0.837,���쐼,2.3,��
2018/02/16,22:00,0.892,1.490,0.930,1.741,1.205,0.489,0.868,0.837,���쐼,2.3,��
2018/02/16,22:10,0.892,1.491,0.932,1.742,1.205,0.489,0.869,0.838,���쐼,2.0,��
2018/02/16,22:20,0.891,1.489,0.931,1.744,1.204,0.488,0.868,0.834,���쐼,2.2,��
2018/02/16,22:30,0.893,1.493,0.932,1.744,1.205,0.488,0.869,0.837,���쐼,2.3,��
2018/02/16,22:40,0.891,1.492,0.931,1.740,1.205,0.487,0.869,0.838,���쐼,2.3,��
2018/02/16,22:50,0.890,1.491,0.929,1.742,1.206,0.487,0.868,0.837,�쐼,2.0,��
2018/02/16,23:00,0.890,1.488,0.930,1.743,1.207,0.488,0.869,0.836,�쐼,1.7,��
2018/02/16,23:10,0.891,1.492,0.929,1.745,1.205,0.488,0.868,0.837,���쐼,2.2,��
2018/02/16,23:20,0.892,1.488,0.931,1.743,1.204,0.488,0.868,0.838,�쐼,2.2,��
2018/02/16,23:30,0.892,1.494,0.929,1.743,1.205,0.489,0.868,0.837,���쐼,2.2,��
2018/02/16,23:40,0.893,1.488,0.931,1.740,1.205,0.489,0.869,0.837,��쐼,2.0,��
2018/02/16,23:50,0.892,1.489,0.931,1.743,1.206,0.489,0.868,0.836,��쐼,2.0,��
